Satellite: FAST1-2
Catalog number: 37227
Epoch time:      11076.46150311
Element set:    0104
Inclination:      071.9707 deg
RA of node:       241.5035 deg
Eccentricity:    0.0015604
Arg of perigee:   091.4474 deg
Mean anomaly:     268.8479 deg
Mean motion:   14.76407590 rev/day
Decay rate:       3.09e-06 rev/day^2
Epoch rev:           01732
Checksum:              283

/EX
SB KEPS @ AMSAT  $ORB11076.W
Orbital Elements  11076.WEATHER

HR AMSAT ORBITAL ELEMENTS FOR WEATHER SATELLITES
FROM WA5QGD FORT WORTH,TX March 17, 2011
Send Subscribe/unsubscribe to KEPS at http://www.amsat.org/mailman/listinfo/kep
BID: ORB11076.W
TO ALL RADIO AMATEURS BT

Satellite: NOAA-10
Catalog number: 16969
Epoch time:      11075.96548552
Element set:    0436
Inclination:      098.6293 deg
RA of node:       106.9675 deg
Eccentricity:    0.0012885
Arg of perigee:   132.3167 deg
Mean anomaly:     227.9108 deg
Mean motion:   14.27448165 rev/day
Decay rate:        5.4e-07 rev/day^2
Epoch rev:           27449
Checksum:              338

Satellite: NOAA-11
Catalog number: 19531
Epoch time:      11075.70485389
Element set:    0438
Inclination:      098.7521 deg
RA of node:       164.9173 deg
Eccentricity:    0.0011991
Arg of perigee:   092.3257 deg
Mean anomaly:     267.9285 deg
Mean motion:   14.14907573 rev/day
Decay rate:        8.3e-07 rev/day^2
Epoch rev:           15967
Checksum:              336

Satellite: NOAA-12
Catalog number: 21263
Epoch time:      11075.93976769
Element set:    0948
Inclination:      098.7565 deg
RA of node:       093.9273 deg
Eccentricity:    0.0013360
Arg of perigee:   094.2066 deg
Mean anomaly:     266.0642 deg
Mean motion:   14.25691234 rev/day
Decay rate:       1.48e-06 rev/day^2
Epoch rev:           03126
Checksum:              319

Satellite: MET-3/5
Catalog number: 21655
Epoch time:      11075.90805917
Element set:    0063
Inclination:      082.5555 deg
RA of node:       115.9798 deg
Eccentricity:    0.0014250
Arg of perigee:   032.5542 deg
Mean anomaly:     327.6473 deg
Mean motion:   13.17029199 rev/day
Decay rate:        5.1e-07 rev/day^2
Epoch rev:           94157
Checksum:              309

Satellite: MET-2/21
Catalog number: 22782
Epoch time:      11075.91281419
Element set:    0046
Inclination:      082.5473 deg
RA of node:       036.0806 deg
Eccentricity:    0.0022698
Arg of perigee:   002.0924 deg
Mean anomaly:     358.0326 deg
Mean motion:   13.83654338 rev/day
Decay rate:        7.7e-07 rev/day^2
Epoch rev:           88579
Checksum:              314

Satellite: OKEAN-4
Catalog number: 23317
Epoch time:      11076.87623114
Element set:     501
Inclination:      082.5376 deg
RA of node:       098.4003 deg
Eccentricity:    0.0023827
Arg of perigee:   061.6004 deg
Mean anomaly:     298.7609 deg
Mean motion:   14.82965713 rev/day
Decay rate:       3.62e-06 rev/day^2
Epoch rev:           88701
Checksum:              299

Satellite: NOAA-14
Catalog number: 23455
Epoch time:      11075.96387130
Element set:    0437
Inclination:      098.8546 deg
RA of node:       159.5084 deg
Eccentricity:    0.0009355
Arg of perigee:   176.3626 deg
Mean anomaly:     183.7614 deg
Mean motion:   14.13809196 rev/day
Decay rate:        1.0e-08 rev/day^2
Epoch rev:           83604
Checksum:              320

Satellite: NOAA-15
Catalog number: 25338
Epoch time:      11075.89627304
Element set:    0746
Inclination:      098.6485 deg
RA of node:       063.3368 deg
Eccentricity:    0.0010896
Arg of perigee:   006.5251 deg
Mean anomaly:     353.6059 deg
Mean motion:   14.24891072 rev/day
Decay rate:       1.32e-06 rev/day^2
Epoch rev:           66758
Checksum:              326

Satellite: RESURS
Catalog number: 25394
Epoch time:      11076.63729879
Element set:     748
Inclination:      098.3006 deg
RA of node:       084.7033 deg
Eccentricity:    0.0002074
Arg of perigee:   116.0935 deg
Mean anomaly:     244.0458 deg
Mean motion:   14.24225725 rev/day
Decay rate:        2.6e-07 rev/day^2
Epoch rev:           65927
Checksum:              305

Satellite: FENGYUN1
Catalog number: 25730
Epoch time:      11075.90035076
Element set:     280
Inclination:      098.8115 deg
RA of node:       039.1499 deg
Eccentricity:    0.0022258
Arg of perigee:   209.3645 deg
Mean anomaly:     150.6275 deg
Mean motion:   14.08535167 rev/day
Decay rate:       6.83e-06 rev/day^2
Epoch rev:           61007
Checksum:              293

Satellite: OKEAN-0
Catalog number: 25860
Epoch time:      11075.96094297
Element set:    0277
Inclination:      097.8731 deg
RA of node:       045.0030 deg
Eccentricity:    0.0000833
Arg of perigee:   046.6936 deg
Mean anomaly:     313.4341 deg
Mean motion:   14.73728496 rev/day
Decay rate:       4.27e-06 rev/day^2
Epoch rev:           62707
Checksum:              307

Satellite: NOAA-16
Catalog number: 26536
Epoch time:      11075.92722976
Element set:    0228
Inclination:      099.1505 deg
RA of node:       104.5580 deg
Eccentricity:    0.0009762
Arg of perigee:   293.3829 deg
Mean anomaly:     066.6311 deg
Mean motion:   14.12601453 rev/day
Decay rate:        3.1e-07 rev/day^2
Epoch rev:           54033
Checksum:              291

